Gastonia, NC

9:35 AM EDT on June 19, 2018 (GMT -0400)
Gastonia Municipal

Weather History for KAKH - October, 2017

Change the Weather History Date:

Friday, October 13, 2017

  Actual Average (WUND) Record (WUND)
Temperature  
Mean Temperature 70 °F -  
Max Temperature 73 °F - - (-1)
Min Temperature 66 °F - - (-1)
Cooling Degree Days 4    
Growing Degree Days 20 (Base 50)    
Moisture  
Dew Point 65 °F    
Average Humidity 90    
Maximum Humidity 96    
Minimum Humidity 81    
Precipitation  
Precipitation 0.24 in - - ()
Sea Level Pressure  
Sea Level Pressure 30.24 in    
Wind  
Wind Speed 8 mph (NE)    
Max Wind Speed 12 mph    
Max Gust Speed -    
Visibility 8 miles    
Events Rain    
Averages and records for this station are not official NWS values.
T = Trace of Precipitation, MM = Missing Value Source: NWS Daily Summary

Daily Weather History Graph

Daily Weather History Graph

Search for Another Location

Airport or City:

Astronomy

Oct. 13, 2017 Rise Set
Actual Time 7:29 AM EDT 6:51 PM EDT
Civil Twilight 7:03 AM EDT 7:17 PM EDT
Nautical Twilight 6:34 AM EDT 7:46 PM EDT
Astronomical Twilight 6:04 AM EDT 8:15 PM EDT
Moon 1:05 AM EDT (10/13) 3:20 PM EDT (10/13)
Length of Visible Light 12h 13m
Length of Day
11h 22m
Last Quarter, 37% of the Moon is Illuminated
Oct 13
Last Quarter
Oct 19
New
Oct 27
First Quarter
Nov 4
Full
Nov 10
Last Quarter

Hourly Weather History & Observations

Time (EDT) Temp. Dew Point Humidity Pressure Visibility Wind Dir Wind Speed Gust Speed Precip Events Conditions
12:54 AM 73.0 °F 66.9 °F 81% 30.15 in 10.0 mi ENE 8.1 mph - N/A   Overcast
1:54 AM 72.0 °F 66.9 °F 84% 30.15 in 10.0 mi ENE 5.8 mph - N/A   Overcast
2:54 AM 72.0 °F 66.9 °F 84% 30.16 in 10.0 mi NE 5.8 mph - N/A   Overcast
3:54 AM 70.0 °F 68.0 °F 93% 30.17 in 5.0 mi NE 8.1 mph - N/A   Overcast
4:11 AM 69.1 °F 66.9 °F 93% 30.19 in 3.0 mi NE 9.2 mph - N/A   Overcast
4:18 AM 69.1 °F 66.9 °F 93% 30.19 in 2.5 mi NE 10.4 mph - N/A   Overcast
4:29 AM 69.1 °F 66.9 °F 93% 30.21 in 3.0 mi WNW 3.5 mph - N/A   Overcast
4:36 AM 69.1 °F 66.9 °F 93% 30.21 in 1.8 mi NNE 9.2 mph - 0.09 in Rain Rain
4:54 AM 68.0 °F 66.9 °F 96% 30.18 in 2.5 mi NNE 9.2 mph - 0.23 in Rain Light Rain
5:01 AM 68.0 °F 66.9 °F 96% 30.20 in 5.0 mi NE 11.5 mph - 0.01 in Rain Light Rain
5:23 AM 68.0 °F 66.0 °F 93% 30.21 in 10.0 mi ENE 9.2 mph - 0.01 in   Overcast
5:45 AM 68.0 °F 66.9 °F 96% 30.21 in 10.0 mi NE 9.2 mph - 0.01 in   Overcast
5:54 AM 68.0 °F 66.0 °F 93% 30.20 in 10.0 mi NE 10.4 mph - 0.01 in   Overcast
6:04 AM 68.0 °F 66.0 °F 93% 30.22 in 10.0 mi NE 9.2 mph - N/A   Overcast
6:13 AM 68.0 °F 66.0 °F 93% 30.22 in 10.0 mi NE 8.1 mph - N/A   Overcast
6:54 AM 68.0 °F 66.0 °F 93% 30.22 in 10.0 mi NE 8.1 mph - N/A   Overcast
7:35 AM 66.9 °F 64.9 °F 93% 30.25 in 8.0 mi NE 11.5 mph - N/A   Overcast
7:54 AM 66.9 °F 64.9 °F 93% 30.24 in 10.0 mi NE 10.4 mph - N/A   Overcast
8:05 AM 66.9 °F 64.9 °F 93% 30.25 in 10.0 mi NE 9.2 mph - N/A   Overcast
8:35 AM 66.9 °F 64.9 °F 93% 30.26 in 9.0 mi NE 11.5 mph - N/A   Overcast
8:44 AM 66.9 °F 64.9 °F 93% 30.27 in 8.0 mi NNE 8.1 mph - N/A   Overcast
8:54 AM 66.9 °F 64.9 °F 93% 30.25 in 7.0 mi NE 11.5 mph - N/A   Overcast
9:26 AM 68.0 °F 64.9 °F 90% 30.28 in 10.0 mi NNE 9.2 mph - N/A   Overcast
9:54 AM 68.0 °F 64.0 °F 87% 30.27 in 10.0 mi NE 10.4 mph - N/A   Overcast
10:01 AM 68.0 °F 64.9 °F 90% 30.28 in 10.0 mi ENE 9.2 mph - N/A   Overcast
10:54 AM 68.0 °F 64.0 °F 87% 30.28 in 10.0 mi NE 9.2 mph - N/A   Overcast
11:54 AM 69.1 °F 64.0 °F 84% 30.28 in 10.0 mi NE 6.9 mph - N/A   Overcast
12:54 PM 69.1 °F 64.0 °F 84% 30.27 in 10.0 mi ENE 9.2 mph - N/A   Overcast
1:41 PM 69.1 °F 64.9 °F 87% 30.27 in 10.0 mi NE 5.8 mph - N/A   Overcast
1:50 PM 69.8 °F 64.4 °F 83% 30.27 in 10.0 mi ENE 6.9 mph - N/A   Overcast
1:54 PM 70.0 °F 64.0 °F 81% 30.25 in 10.0 mi ENE 6.9 mph - N/A   Overcast
2:54 PM 69.1 °F 64.0 °F 84% 30.24 in 10.0 mi North 5.8 mph - N/A   Overcast
3:54 PM 70.0 °F 64.0 °F 81% 30.24 in 10.0 mi NE 5.8 mph - N/A   Overcast
4:34 PM 68.0 °F 64.0 °F 87% 30.24 in 10.0 mi NNE 8.1 mph - N/A   Overcast
4:54 PM 68.0 °F 64.0 °F 87% 30.23 in 10.0 mi NNE 9.2 mph - N/A   Overcast
5:54 PM 68.0 °F 64.0 °F 87% 30.24 in 10.0 mi NNE 5.8 mph - N/A   Overcast
6:54 PM 66.9 °F 64.0 °F 90% 30.25 in 10.0 mi North 5.8 mph - N/A   Overcast
7:54 PM 66.9 °F 64.0 °F 90% 30.26 in 7.0 mi North 4.6 mph - N/A   Overcast
8:20 PM 66.0 °F 64.0 °F 93% 30.27 in 4.0 mi NNE 6.9 mph - 0.00 in Rain Light Rain
8:31 PM 66.0 °F 64.0 °F 93% 30.27 in 5.0 mi North 4.6 mph - 0.00 in Rain Light Rain
8:54 PM 66.0 °F 64.0 °F 93% 30.26 in 7.0 mi North 4.6 mph - 0.00 in   Overcast
9:04 PM 66.0 °F 64.0 °F 93% 30.27 in 7.0 mi North 4.6 mph - N/A   Overcast
9:54 PM 66.0 °F 64.0 °F 93% 30.27 in 7.0 mi NNE 4.6 mph - N/A   Overcast
10:54 PM 66.0 °F 63.0 °F 90% 30.27 in 10.0 mi NE 3.5 mph - N/A   Overcast
11:54 PM 66.0 °F 64.0 °F 93% 30.27 in 8.0 mi North 4.6 mph - N/A   Overcast